Weather in Mirny

Russia / Republic of Crimea     45°18′29″N   33°02′04″E
temp.,
°C
wind,
m/s
gust,
m/s
humid.,
%
clouds,
%
prec.,
mm/h
press.,
hPa
HPBL,
m
25 february, thu
thu2500:000ene556368 0.0 1037312
03:000ene456233 0.0 1036232
06:000ne346159 0.0 1036231
09:00+1ese225973 0.0 1035193
12:00+3wsw115897 0.0 1035221
15:00+4w347293 0.0 1034330
18:00+6wsw4581100 0.1 1033421
21:00+6wsw568693 0.1 1033441
26 february, fri
fri2600:00+7wsw5690100 0.1 1032360
03:00+7w459097 0.1 1031257
06:00+7w239054 0.0 1030148
09:00+7wsw339066 0.0 1030134
12:00+8wsw45887 0.0 1029178
15:00+8wsw46883 0.0 1027198
18:00+8sw56910 0.0 1026151
21:00+8ssw69920 0.0 1025212
27 february, sat
sat2700:00+8sw710920 0.0 1024284
03:00+8sw710920 0.0 1023317
06:00+8sw69920 0.0 1021307
09:00+8sw79910 0.0 1020311
12:00+8sw68905 0.0 1019272
15:00+8wsw579120 0.0 1018244
18:00+8nnw458888 0.0 1017184
21:00+7nnw798794 0.9 1018541
28 february, sun
sun2800:00+6nnw81078100 0.2 1018912
03:00+6nnw8106878 0.2 10181105
06:00+5nnw8118261 0.1 1019811
09:00+4nw998378 0.1 1020862
12:00+4nnw8976100 0.1 10201025
15:00+4nw8974100 0.3 1021950
18:00+4nnw8980100 0.2 1022800
21:00+4n8979100 0.3 1024822
1 march, mon
mon100:00+3n897948 0.0 1026730
03:00+3n778240 0.0 1027624
06:00+2n678760 0.1 1028561
09:00+2n568279 0.2 1029660
12:00+3nne5575100 0.1 1031822
15:00+3n5569100 0.2 1031863
18:00+3n5667100 0.0 1032980
21:00+3nne5771100 0.1 1033895